"Pseudo-MPEC" for P20SEML

Created 2019 Oct 16 16:07:13 UT using Find_Orb

Click here for an explanation of pseudo-MPECs

 
 Astrometry: 
     P20SEML  C2019 10 08p52`oxmy`bAstrometry;2=i#JaCi6HK1TbhGredacted;CxBmgTF52
     P20SEML  C2019 10 08-\-6GQY4uclick]^6hereZML(y7\;%)=#\9JforInX`U2vOM[cHrF52
     P20SEML  C2019 10 08G_SOe[(#rw\Un97.aVvG1bCg7JTMOV2\_Q=explanationATikE2F52

Station data:
(F52) Pan-STARRS 2, Haleakala  (N20.707384 W156.255910)  US/Hawaii. 1.8-m
   Ritchey-Chrétien + CCD.

Orbital elements:  P20SEML
   Perihelion 2019 Nov 24.955510 +/- 25.2 TT = 22:55:56 (JD 2458812.455510)
Epoch 2019 Oct  9.0 TT = JDT 2458765.5   Earth MOID: 0.0049   AutoNEOCP
M 317.83022164 +/- 25               (J2000 ecliptic)
n   0.89807944 +/- 0.465            Peri.  269.32003 +/- 120
a   1.06396222 +/- 0.367            Node   154.81916 +/- 70
e   0.0799908 +/- 0.24              Incl.    0.37798 +/- 12
P   1.10/400.85d           H 30.2   G  0.15   U 12.2  SR
q 0.97885500 +/- 0.229    Q 1.14906944 +/- 32.9
From 3 observations 2019 Oct. 8 (31.4 min); mean residual 0".25
Residuals in arcseconds: 
191008 F52  .20-  .15-    191008 F52  .41+  .29+    191008 F52  .20-  .15-    

Ephemerides (geocentric):
Date (UTC) HH   RA              Dec         delta   r     elong  mag " sig PA
---- -- -- --  -------------   -----------  ------ ------ -----  --- ---- ---
2019 10 16 16  07 20 30.408   -14 22 47.82  .00776 0.9967  88.7 22.8  59d 167
2019 10 16 17  07 21 30.255   -14 20 26.82  .00777 0.9967  88.5 22.8  59d 167
2019 10 16 18  07 22 29.867   -14 18 05.43  .00779 0.9967  88.3 22.9  59d 167
2019 10 16 19  07 23 29.244   -14 15 43.66  .00780 0.9966  88.1 22.9  59d 167
2019 10 16 20  07 24 28.387   -14 13 21.54  .00782 0.9966  87.9 22.9  59d 167
2019 10 16 21  07 25 27.294   -14 10 59.06  .00783 0.9965  87.7 22.9  59d 167
2019 10 16 22  07 26 25.965   -14 08 36.25  .00784 0.9965  87.5 22.9  59d 167
2019 10 16 23  07 27 24.402   -14 06 13.12  .00786 0.9965  87.3 22.9  59d 167
2019 10 17 00  07 28 22.602   -14 03 49.69  .00787 0.9964  87.1 22.9  59d 167
2019 10 17 01  07 29 20.567   -14 01 25.96  .00789 0.9964  86.9 22.9  59d 167
2019 10 17 02  07 30 18.295   -13 59 01.95  .00790 0.9963  86.7 23.0  59d 167
2019 10 17 03  07 31 15.788   -13 56 37.68  .00792 0.9963  86.5 23.0  59d 167
2019 10 17 04  07 32 13.045   -13 54 13.15  .00794 0.9963  86.3 23.0  59d 167
2019 10 17 05  07 33 10.066   -13 51 48.39  .00795 0.9962  86.1 23.0  59d 167
2019 10 17 06  07 34 06.851   -13 49 23.39  .00797 0.9962  86.0 23.0  59d 167
2019 10 17 07  07 35 03.400   -13 46 58.19  .00798 0.9962  85.8 23.0  59d 167
2019 10 17 08  07 35 59.714   -13 44 32.78  .00800 0.9961  85.6 23.0  59d 167
2019 10 17 09  07 36 55.792   -13 42 07.18  .00801 0.9961  85.4 23.0  59d 167
2019 10 17 10  07 37 51.634   -13 39 41.40  .00803 0.9960  85.2 23.1  59d 167
2019 10 17 11  07 38 47.241   -13 37 15.47  .00804 0.9960  85.0 23.1  59d 167
2019 10 17 12  07 39 42.613   -13 34 49.37  .00806 0.9960  84.9 23.1  59d 167
2019 10 17 13  07 40 37.749   -13 32 23.14  .00808 0.9959  84.7 23.1  59d 167
2019 10 17 14  07 41 32.651   -13 29 56.78  .00809 0.9959  84.5 23.1  59d 167
2019 10 17 15  07 42 27.319   -13 27 30.30  .00811 0.9958  84.3 23.1  59d 167
2019 10 17 16  07 43 21.752   -13 25 03.72  .00813 0.9958  84.1 23.1  59d 167
2019 10 17 17  07 44 15.952   -13 22 37.03  .00814 0.9958  84.0 23.1  59d 167
2019 10 17 18  07 45 09.917   -13 20 10.27  .00816 0.9957  83.8 23.2  59d 167
2019 10 17 19  07 46 03.650   -13 17 43.43  .00818 0.9957  83.6 23.2  59d 167
2019 10 17 20  07 46 57.149   -13 15 16.53  .00819 0.9957  83.4 23.2  59d 167
2019 10 17 21  07 47 50.416   -13 12 49.58  .00821 0.9956  83.3 23.2  58d 167
2019 10 17 22  07 48 43.451   -13 10 22.59  .00823 0.9956  83.1 23.2  58d 167
2019 10 17 23  07 49 36.254   -13 07 55.57  .00824 0.9955  82.9 23.2  58d 167
2019 10 18 00  07 50 28.826   -13 05 28.52  .00826 0.9955  82.7 23.2  58d 167
2019 10 18 01  07 51 21.167   -13 03 01.47  .00828 0.9955  82.6 23.2  58d 167
2019 10 18 02  07 52 13.277   -13 00 34.41  .00830 0.9954  82.4 23.3  58d 167
2019 10 18 03  07 53 05.158   -12 58 07.37  .00831 0.9954  82.2 23.3  58d 167
2019 10 18 04  07 53 56.809   -12 55 40.34  .00833 0.9954  82.1 23.3  58d 167
2019 10 18 05  07 54 48.231   -12 53 13.34  .00835 0.9953  81.9 23.3  58d 167
2019 10 18 06  07 55 39.425   -12 50 46.38  .00837 0.9953  81.7 23.3  58d 167
2019 10 18 07  07 56 30.391   -12 48 19.46  .00838 0.9952  81.6 23.3  58d 167
2019 10 18 08  07 57 21.130   -12 45 52.60  .00840 0.9952  81.4 23.3  58d 167
2019 10 18 09  07 58 11.642   -12 43 25.80  .00842 0.9952  81.2 23.3  58d 167
2019 10 18 10  07 59 01.928   -12 40 59.08  .00844 0.9951  81.1 23.3  58d 167
2019 10 18 11  07 59 51.988   -12 38 32.43  .00846 0.9951  80.9 23.4  58d 167
2019 10 18 12  08 00 41.824   -12 36 05.88  .00848 0.9951  80.8 23.4  58d 167
2019 10 18 13  08 01 31.435   -12 33 39.42  .00849 0.9950  80.6 23.4  58d 167
2019 10 18 14  08 02 20.822   -12 31 13.07  .00851 0.9950  80.4 23.4  58d 167
2019 10 18 15  08 03 09.987   -12 28 46.83  .00853 0.9949  80.3 23.4  58d 167